Location: Ore Lake
(42.4733°N, 83.8017°W)
Time: 07:55:47
(UTC-04:00)

Daily predictions for brighter satellites

Satellite Brightness Start Highest point End
(mag) Time Altitude Azimuth Time Altitude Azimuth Time Altitude Azimuth
FENGYUN 3A 4.1 21:28:16 10° S 21:33:37 69° WSW 21:39:01 10° NNW
Cosmos 1602 Rocket 3.6 21:31:16 10° S 21:35:44 82° E 21:40:13 10° N
Cosmos 1603 3.9 21:33:02 10° SSW 21:38:38 78° WNW 21:44:17 10° NNE
USA 186 3.4 21:41:54 10° SSW 21:44:15 26° W 21:46:29 10° NW
Cosmos 1943 Rocket 3.6 21:40:42 10° N 21:45:10 24° NE 21:49:38 10° ESE
Cosmos 1812 Rocket 3.6 21:41:54 10° N 21:46:19 77° E 21:50:44 10° SSE
ALOS 3.4 21:42:06 10° S 21:46:33 44° W 21:51:03 10° NNW
Lacrosse 4 Rocket 1.9 21:44:02 10° S 21:47:46 37° ESE 21:51:33 10° NE
Atlas Centaur 2 3.6 21:47:20 10° WSW 21:53:15 32° S 22:00:09 10° ESE
Cosmos 1992 Rocket 4.0 21:49:24 10° NNW 21:54:39 80° ENE 21:59:51 10° SSE
SeaSat 1 3.2 21:52:54 10° ESE 21:57:29 40° NE 22:02:05 10° NNW
ISS -1.8 21:54:26 10° W 21:57:33 40° NNW 22:00:40 10° NE
Cosmos 1943 3.2 21:52:18 10° S 21:57:53 65° ESE 22:03:32 10° NNE
Tsikada Rocket 4.2 21:52:10 10° S 21:58:34 85° W 22:04:59 10° N
H-2A R/B 2.3 21:54:49 10° S 21:59:06 74° WSW 22:03:31 10° NNW
deb Chang Zheng 4 3.9 22:01:09 10° N 22:05:32 71° WNW 22:09:52 10° SSW
Meteor 2-12 Rocket 4.4 22:00:26 10° N 22:06:33 87° E 22:12:36 10° S
Cosmos 1238 4.2 22:03:55 10° S 22:06:55 81° W 22:10:01 10° N
USA 81 4.1 22:06:48 10° N 22:12:05 63° E 22:17:13 10° SSE
CZ-4B R/B 3.9 22:08:49 10° NNE 22:13:44 44° E 22:18:43 10° S
Lacrosse 5 rocket 4.4 22:13:02 10° NNW 22:14:33 12° N 22:16:06 10° NNE
Cosmos 1953 4.2 22:12:31 10° NNE 22:15:11 17° ENE 22:17:07 13° ESE
Cosmos 1939 Rocket 3.4 22:13:30 10° S 22:17:36 60° W 22:21:42 10° NNW
PSLV R/B 3.3 22:14:58 10° W 22:18:28 68° S 22:21:15 15° ESE
Terra 3.6 22:19:03 11° ESE 22:21:57 18° ENE 22:25:12 10° NNE
ARGOS 3.7 22:18:00 15° SE 22:22:10 43° ENE 22:27:17 10° N
ATLAS 3B R/B 2.9 22:14:42 10° SSW 22:22:24 82° ESE 22:29:57 10° NE
Cosmos 1190 Rocket 4.0 22:17:37 10° SSW 22:22:56 86° ESE 22:28:17 10° NNE
Cosmos 1346 Rocket 2.7 22:19:57 10° S 22:23:48 65° E 22:27:44 10° NNE
SPOT 5 2.7 22:21:02 11° S 22:25:11 78° WSW 22:29:32 10° NNW
Cosmos-2242 4.2 22:21:48 10° NNE 22:25:40 29° ENE 22:28:02 18° ESE
USA 245 4.2 22:21:18 15° SSE 22:25:54 57° ENE 22:30:31 10° N
Cosmos 1634 Rocket 4.0 22:20:58 10° N 22:27:12 85° E 22:33:08 11° S
Cosmos 1842 4.2 22:25:38 19° SE 22:27:32 29° E 22:30:57 10° NNE
Cosmos 1953 Rocket 3.5 22:23:27 10° S 22:27:51 70° E 22:32:17 10° NNE
CZ-4 SHROUD 3.8 22:25:31 13° S 22:28:15 54° W 22:31:22 10° NNW
MetOp-B 4.1 22:24:19 13° SSE 22:29:05 84° ENE 22:34:29 10° NNW
PSLV R/B 3.7 22:26:38 14° S 22:29:12 56° W 22:32:17 10° NNW
Cosmos 1140 Rocket 4.4 22:26:31 17° SSE 22:29:33 29° E 22:34:01 10° NE
Cosmos 489 Rocket 4.5 22:27:28 10° SSW 22:33:48 79° ESE 22:40:11 10° NNE
Lacrosse 5 4.4 22:32:48 10° NNW 22:35:53 16° N 22:38:58 10° NE
H-2A R/B 3.2 22:33:42 17° ESE 22:36:37 28° ENE 22:40:56 10° N
SL-8 R/B 4.3 22:32:01 10° WNW 22:36:48 56° NNE 22:41:05 13° E
Meteor 1-21 4.4 22:31:59 11° S 22:37:28 61° E 22:43:13 10° NNE
Cosmos 2369 Rocket 2.7 22:34:23 10° NNW 22:39:54 55° WSW 22:44:34 14° S
Cosmos 676 Rocket 4.0 22:35:09 10° S 22:40:27 74° ESE 22:45:47 10° NNE
USA 234 3.6 22:37:08 14° ESE 22:42:47 62° NE 22:49:15 10° NW
SPOT 1/Viking Rocket 3.5 22:41:55 19° SSE 22:45:41 85° ENE 22:50:52 10° NNW
Cosmos 2279 Rocket 4.0 22:39:29 10° N 22:45:45 70° E 22:50:14 20° SSE
YAOGAN 6 2.7 22:43:54 22° S 22:46:13 81° WSW 22:49:59 10° NNW
Cosmos 1932 4.4 22:41:00 10° SSW 22:47:06 65° ESE 22:53:16 10° NE
Cosmos 1766 3.2 22:49:01 10° N 22:53:03 89° W 22:55:14 26° S
SL-08 RB Rocket 3.7 22:51:28 26° SSE 22:53:57 68° ENE 22:58:27 10° N
NOAA 11 4.2 22:51:02 23° SSE 22:54:33 76° ENE 22:59:59 10° N
SAR-Lupe-2 4.4 22:58:16 29° ESE 22:59:14 35° ENE 23:02:32 10° N
Cosmos 1758 Rocket 4.0 22:57:13 11° SSW 23:01:20 62° W 23:05:39 10° N
Envisat 4.5 22:57:55 10° SSW 23:02:24 31° W 23:06:55 10° NNW
CZ-4C R/B 3.4 23:03:35 21° ESE 23:03:35 21° ESE 23:07:47 10° ENE
CARTOSAT-1 4.1 23:02:00 29° ESE 23:03:39 43° ENE 23:07:46 10° N
Cosmos 1758 3.5 23:00:05 10° N 23:04:10 58° E 23:05:36 36° SE
Cosmos 407 Rocket 4.4 23:01:43 10° SW 23:06:49 50° WNW 23:11:53 10° N
USA 238 DEB 3.7 23:02:56 10° SSW 23:10:00 74° ESE 23:17:03 10° NE
USA 238 3.7 23:03:02 10° SSW 23:10:05 73° ESE 23:17:08 10° NE
SL-27 R/B 2.5 23:10:37 26° SSW 23:12:19 70° WNW 23:15:40 10° NNE
DMSP B5D2-2 4.4 23:11:07 10° NNE 23:16:13 48° E 23:18:08 33° SSE
Cosmos 1470 3.9 23:15:26 10° NNE 23:18:51 28° ENE 23:19:20 28° E
Cosmos 1805 3.2 23:15:31 10° N 23:19:28 76° E 23:20:29 48° SSE
IGS 5A 3.7 23:19:53 41° SE 23:21:01 56° ENE 23:25:06 10° N
COSMOS 2487 3.2 23:24:51 39° E 23:24:51 39° E 23:27:54 10° NNE
COSMOS 2406 3.1 23:21:23 15° SSW 23:26:07 86° ESE 23:31:54 10° NNE
Lacrosse 4 Rocket 3.9 23:23:26 10° WSW 23:26:36 22° NW 23:29:50 10° N
Cosmos 1943 Rocket 2.6 23:23:50 10° NNW 23:29:15 55° WSW 23:31:53 29° S
Cosmos 1842 Rocket 3.5 23:27:34 10° N 23:31:59 76° E 23:33:08 48° SSE
Cosmos 2084 4.0 23:28:37 10° NW 23:32:36 45° WSW 23:33:35 38° SSW
Cosmos 2082 Rocket 4.3 23:34:49 10° E 23:34:49 10° E 23:35:20 10° E
ISS -0.3 23:32:22 10° NW 23:34:38 17° N 23:36:53 10° NE
SeaSat 1 3.9 23:32:37 19° SSW 23:35:04 29° WSW 23:39:21 10° NW
Cosmos 1656 Rocket 3.6 23:30:22 10° NNW 23:36:05 83° ENE 23:38:15 40° SSE
CZ-4C R/B 4.2 23:36:09 32° SSW 23:37:34 44° W 23:41:23 10° NNW
Cosmos 2208 Rocket 4.0 23:36:26 10° NNW 23:41:37 71° WSW 23:43:24 41° S
Atlas Centaur 2 3.9 23:36:04 10° WSW 23:42:08 26° SSW 23:42:50 26° S
Landsat 7 4.3 23:41:38 33° SSW 23:43:29 52° W 23:48:08 10° NNW
NOSS 3-2 (C) 3.8 23:43:08 38° SE 23:44:23 42° ESE 23:50:30 10° NE
Cosmos 1707 3.2 23:50:19 46° E 23:50:19 46° E 23:53:53 10° NNE
Cosmos 1953 3.5 23:48:08 10° NNW 23:51:46 34° W 23:52:53 29° SW
Cosmos 1741 Rocket 4.2 23:49:47 24° SSW 23:52:59 69° WNW 23:58:20 10° NNE
Geosat 4.1 23:48:00 10° NNE 23:53:02 78° WNW 23:55:55 26° SW
Lacrosse 5 rocket 4.3 23:53:31 10° NNW 23:55:28 13° NNE 23:57:26 10° NE
